Waukesha County Airport (UES)


Airport Diagram
Current Weather/Forecast (VFR Conditions)
METAR KUES 260145Z 00000KT 10SM CLR 24/13 A2995
TAF KUES 252325Z 2600/2624 30012KT P6SM BKN250 FM260100 30006KT P6SM SCT250 FM261500 27008KT P6SM FEW250

All Charts
General
Chart Name Download
AIRPORT DIAGRAM
TAKEOFF MINIMUMS
ALTERNATE MINIMUMS

Departures
Chart Name Download
ACCRA FIVE (RNAV)
UECKR SIX (RNAV)

Arrivals
Chart Name Download
GOPAC TWO (RNAV)

Approaches
Chart Name Download
ILS OR LOC RWY 10
RNAV (GPS) RWY 10
RNAV (GPS) RWY 28
VOR-A